Location: Little Arabia
(41.4620°N, 81.7687°W)
Time: 20:19:09
(UTC+00:00)

H-2A R/B - Pass Details

Date: 29 October 2020
Orbit: 528 x 653 km, 98.3° (Epoch: 02 December)

Event Time Altitude Azimuth Distance (km) Brightness Sun altitude
Rises 22:46:12 0° 179° (S) 2,918 6.2 -4.6°
Reaches altitude 10° 22:48:26 10° 184° (S) 2,027 5.5 -5.0°
Maximum altitude 22:52:45 50° 260° (W) 831 3.8 -5.8°
Drops below altitude 10° 22:57:09 10° 336° (NNW) 2,069 5.4 -6.6°
Sets 22:59:26 0° 342° (NNW) 2,985 6.1 -7.0°
